GW5434 Weather Reports


Display with metric or nautical units.
time (UTC)temp
F
wind
direction
speed
MPH
gust
MPH
rain 1hr
in
rain 24hr
in
rain mn
in
humidity
%
barometer
mb
20260901050017 75 113 0.0 0.0 0.00 0.00 0.00 89 1017.6
20260901044512 75 113 0.0 0.0 0.00 0.00 0.00 89 1017.7
20260901043015 76 113 0.0 0.0 0.00 0.00 0.00 89 1017.5
20260901041506 76 113 0.0 0.0 0.00 0.00 0.00 88 1017.6
20260901040014 76 113 0.0 0.0 0.00 0.00 0.00 88 1017.7
20260901034533 77 134 0.0 0.0 0.00 0.00 0.00 87 1017.7
20260901033023 77 134 0.0 0.0 0.00 0.00 0.00 87 1017.7
20260901031529 78 134 0.0 0.0 0.00 0.00 0.00 86 1017.7
20260901030010 78 134 0.0 0.0 0.00 0.00 0.00 85 1017.8
20260901024519 78 134 0.0 0.0 0.00 0.00 0.00 84 1017.8
20260901023018 79 134 0.0 0.0 0.00 0.00 0.00 83 1017.7
20260901021520 80 101 0.0 0.0 0.00 0.00 0.00 82 1017.7
20260901020020 81 111 0.0 0.0 0.00 0.00 0.00 80 1017.7
20260901014514 81 131 0.0 1.0 0.00 0.00 0.00 79 1017.5
20260901013020 82 114 0.0 2.0 0.00 0.00 0.00 77 1017.3
20260901011518 83 155 1.0 4.0 0.00 0.00 0.00 75 1017.1
20260901010036 84 200 0.0 5.0 0.00 0.00 0.00 74 1017.0
20260901004525 85 229 1.0 4.0 0.00 0.00 0.00 73 1016.9
20260901003017 85 97 2.0 10.0 0.00 0.00 0.00 73 1016.8
20260901001522 85 110 0.0 0.0 0.00 0.00 0.00 77 1016.4
20260901000040 86 109 0.0 0.0 0.00 0.00 0.00 73 1016.0
20260831193039 94 86 2.0 11.0 0.00 0.00 0.00 56 1017.6
20260831181541 91 105 1.0 4.0 0.00 0.00 0.00 64 1018.2
20260831180036 91 162 3.0 6.0 0.00 0.00 0.00 62 1018.2
20260831174508 91 34 1.0 4.0 0.00 0.00 0.00 62 1018.3
20260831173018 93 33 3.0 6.0 0.00 0.00 0.00 59 1018.5
20260831171523 93 145 0.0 8.0 0.00 0.00 0.00 61 1018.8
20260831170033 91 147 3.0 7.0 0.00 0.00 0.00 63 1019.1
20260831163012 90 359 3.0 8.0 0.00 0.00 0.00 65 1019.4
20260831161529 89 60 2.0 7.0 0.00 0.00 0.00 69 1019.5
20260831160023 88 53 1.0 6.0 0.00 0.00 0.00 70 1019.5
20260831154608 88 174 3.0 6.0 0.00 0.00 0.00 72 1019.6
20260831153031 87 79 3.0 6.0 0.00 0.00 0.00 71 1019.8
20260831151513 86 83 0.0 4.0 0.00 0.00 0.00 74 1019.8
20260831150019 87 186 3.0 8.0 0.00 0.00 0.00 74 1019.7
20260831144526 86 123 3.0 10.0 0.00 0.00 0.00 75 1019.6
20260831143034 85 250 1.0 6.0 0.00 0.00 0.00 77 1019.4
20260831141531 84 262 2.0 6.0 0.00 0.00 0.00 78 1019.4
20260831134520 81 65 0.0 3.0 0.00 0.00 0.00 84 1019.3
20260831133027 79 74 1.0 5.0 0.00 0.00 0.00 85 1019.3
20260831131506 79 6 0.0 3.0 0.00 0.00 0.00 86 1019.2
20260831130010 76 53 0.0 0.0 0.00 0.00 0.00 92 1019.1
20260831124519 74 328 0.0 0.0 0.00 0.00 0.00 95 1019.0
20260831123026 72 115 0.0 0.0 0.00 0.00 0.00 95 1018.8
20260831121530 72 115 0.0 0.0 0.00 0.00 0.00 95 1018.6
20260831120010 71 115 0.0 0.0 0.00 0.00 0.00 95 1018.5
20260831114513 71 115 0.0 0.0 0.00 0.00 0.00 95 1018.3
20260831113021 71 115 0.0 0.0 0.00 0.00 0.00 94 1018.2
20260831111536 71 115 0.0 0.0 0.00 0.00 0.00 95 1018.0
20260831104519 71 115 0.0 0.0 0.00 0.00 0.00 94 1017.6
20260831103018 71 115 0.0 0.0 0.00 0.00 0.00 94 1017.6
20260831101523 71 115 0.0 0.0 0.00 0.00 0.00 94 1017.2
20260831100039 71 115 0.0 0.0 0.00 0.00 0.00 94 1017.3
20260831094535 71 115 0.0 0.0 0.00 0.00 0.00 94 1017.3
20260831093030 71 115 0.0 0.0 0.00 0.00 0.00 94 1017.1
20260831091520 72 115 0.0 0.0 0.00 0.00 0.00 94 1017.0
20260831084528 72 115 0.0 0.0 0.00 0.00 0.00 94 1017.0
20260831083043 72 115 0.0 0.0 0.00 0.00 0.00 93 1017.0
20260831081512 73 115 0.0 0.0 0.00 0.00 0.00 94 1017.1
20260831080037 73 115 0.0 0.0 0.00 0.00 0.00 93 1016.9
20260831074530 73 115 0.0 0.0 0.00 0.00 0.00 93 1017.1
20260831073033 73 115 0.0 0.0 0.00 0.00 0.00 93 1017.0
20260831071542 73 115 0.0 0.0 0.00 0.00 0.00 93 1017.1
20260831070018 73 115 0.0 0.0 0.00 0.00 0.00 92 1017.1
20260831064528 73 115 0.0 0.0 0.00 0.00 0.00 92 1017.3
20260831063028 73 115 0.0 0.0 0.00 0.00 0.00 92 1017.5
20260831061530 73 115 0.0 0.0 0.00 0.00 0.00 92 1017.5
20260831060035 74 115 0.0 0.0 0.00 0.00 0.00 92 1017.7
20260831053027 74 115 0.0 0.0 0.00 0.00 0.00 91 1017.7
20260831051533 74 115 0.0 0.0 0.00 0.00 0.00 90 1017.8